This is the latest recevied weather packets stored in our database for station/object VE3VGJ. If no packets are shown the sender has not sent any weather packets the latest 10 day(s).
| Time | Temp. | Humidity | Pressure | Rain* | Wind** | Luminosity | Snow |
|---|---|---|---|---|---|---|---|
| 1777297090 | 11.67° C | 54% | 1024.6 hPa | 0 mm | - | 522 W/m² | - |
| 1777296788 | 11.67° C | 54% | 1024.5 hPa | 0 mm | - | 505 W/m² | - |
| 1777296483 | 11.11° C | 57% | 1024.6 hPa | 0 mm | - | 486 W/m² | - |
| 1777296179 | 11.11° C | 55% | 1024.5 hPa | 0 mm | - | 470 W/m² | - |
| 1777295875 | 11.11° C | 57% | 1024.7 hPa | 0 mm | - | 455 W/m² | - |
| 1777295573 | 10.56° C | 57% | 1024.6 hPa | 0 mm | - | 518 W/m² | - |
| 1777295270 | 10.56° C | 59% | 1024.6 hPa | 0 mm | - | 421 W/m² | - |
| 1777294968 | 11.11° C | 58% | 1024.5 hPa | 0 mm | - | 67 W/m² | - |
| 1777294663 | 10.56° C | 61% | 1024.7 hPa | 0 mm | - | 90 W/m² | - |
| 1777294360 | 10.56° C | 59% | 1024.4 hPa | 0 mm | - | 70 W/m² | - |
| 1777294057 | 10.56° C | 58% | 1024.6 hPa | 0 mm | - | 79 W/m² | - |
| 1777293754 | 10.56° C | 60% | 1024.4 hPa | 0 mm | - | 63 W/m² | - |
| 1777293448 | 10.56° C | 62% | 1024.7 hPa | 0 mm | - | 61 W/m² | - |
| 1777293144 | 10° C | 64% | 1024.4 hPa | 0 mm | - | 67 W/m² | - |
| 1777292843 | 9.44° C | 66% | 1024.7 hPa | 0 mm | - | 63 W/m² | - |
| 1777292540 | 9.44° C | 67% | 1024.7 hPa | 0 mm | - | 62 W/m² | - |
| 1777292236 | 8.89° C | 68% | 1024.5 hPa | 0 mm | - | 55 W/m² | - |
| 1777291932 | 8.89° C | 68% | 1024.3 hPa | 0 mm | - | 62 W/m² | - |
| 1777291629 | 8.89° C | 66% | 1024.6 hPa | 0 mm | - | 62 W/m² | - |
| 1777291326 | 8.89° C | 66% | 1024.5 hPa | 0 mm | - | 68 W/m² | - |
| 1777291023 | 8.89° C | 68% | 1024.5 hPa | 0 mm | - | 96 W/m² | - |
| 1777290720 | 8.89° C | 68% | 1024.5 hPa | 0 mm | - | 153 W/m² | - |
| 1777290416 | 8.33° C | 70% | 1024.5 hPa | 0 mm | - | 143 W/m² | - |
| 1777290110 | 8.33° C | 70% | 1024.2 hPa | 0 mm | - | 129 W/m² | - |
| 1777289809 | 8.33° C | 70% | 1024.3 hPa | 0 mm | - | 115 W/m² | - |
* Rain latest hour (hover to see other rain measurements)
** Current wind speed in m/s (hover to see current wind gust speed)